FENGYUN 1C DEB

Satellite information

Favourite Embed

Satellite Type and Status

DEBRISIN ORBIT

Key statistics

Satellite FENGYUN 1C DEB at a glance.

Uptime

9554

Days in orbit

Revolutions

≈ 14.2

Per day

Orbit

SSO

Sun Synchronous Orbit

Inclination

98.6

Latest

Satellite identification and parameters

Extended collection of information and parameters for FENGYUN 1C DEB.

Object identification

Identified? True

Debris? True

Object name: FENGYUN 1C DEB

International designator: 1999-025DLP

Object number (NORAD): 35135

Object ID (CCSDS): 35135

Country: PEOPLES REPUBLIC OF CHINA (PRC)

Current information (Y/N): Y

RCS size: SMALL

Orbital parameters

Period: 101.256 minutes

Inclination: 98.5671 deg

SMA: 7196.255 km

Apoapsis: 878.07 km

Periapsis: 758.17 km

RAAN: 199.287 deg

Eccentricy: 0.0083307

Argument of periapsis: 32.088 deg

Mean anomaly: 328.5331 deg

Mean motion: 14.22141867 rev/day

Mean motion (dot): 0.00000687 rev/day2

B* drag term: 0.00031801 1/REarth

Two-line elements (TLE)

Creation date: July 5, 2025, 5:45 p.m.

Reference frame: TEME

Reference center: EARTH

Epoch: July 5, 2025, 12:03 a.m. UTC

TLE line 0: 0 FENGYUN 1C DEB

TLE line 1: 1 35135U 99025DLP 25186.00234193 .00000687 00000-0 31801-3 0 9993

TLE line 2: 2 35135 98.5671 199.2870 0083307 32.0880 328.5331 14.22141867855394

Live tracking on map

Real-time ground track for satellite FENGYUN 1C DEB.

In-orbit conjunctions

A list of the most updated potential collisions computed for object FENGYUN 1C DEB.

Target Orbit TCA Probability of collision Miss distance Type
THOR ABLESTAR DEB * LEO 2025-05-15 22:05:10 0.0001176145 84.0 (m) DEBRIS
COSMOS 773 LEO 2024-12-24 10:42:42 0.0001716925 498.0 (m) PAYLOAD
COSMOS 1275 DEB LEO 2024-11-09 05:07:06 0.0004561912 209.0 (m) DEBRIS

Associated space launch

Chinese polar orbiting meteorological satellite

FENGYUN 1C DEB was lifted into orbit during the mission ‘Long March 4B | Feng Yun 1C’, on board a Long March 4B space rocket.

The launch took place on May 10, 1999, 1:33 a.m. from Launch Complex 7.

For more information about the launch, click the button.

Launch to space Long March 4B | Feng Yun 1C
Long March 4B | Feng Yun 1C

Agency: N/A

Status: Launch Successful

Launch date: May 10, 1999, 1:33 a.m. UTC

Rocket: Long March 4B

Launch pad: Launch Complex 7

Location: Taiyuan Satellite Launch Center, People's Republic of China

...

Latest news about this satellite

There are no fresh news available about this satellite. Check back as we update our databases every day.


Newsletter sign-up

Weekly statistics, charts and insights to help you stay on top of the space industry.